SOMP 2b
1 47445U 21006AJ 22272.57714549 .00007776 00000-0 40361-3 0 9994
2 47445 97.4231 329.0347 0009731 278.2441 81.7689 15.16358239 93046
IDEASSat
1 47458U 21006AX 22272.43825332 .00006705 00000-0 35031-3 0 9995
2 47458 97.4321 329.4911 0008889 277.2141 82.8082 15.16183759 93019
CubeSX-Sirius-HSE
1 47951U 21022V 22272.49466649 .00003942 00000-0 25779-3 0 9997
2 47951 97.5171 169.8100 0021596 145.8531 318.8068 15.08168089 83677
CubeSX-HSE
1 47952U 21022W 22272.49040772 .00004771 00000-0 31065-3 0 9999
2 47952 97.5173 169.8343 0021210 145.2845 26.4180 15.08229691 83678
KSU-Cubesat
1 47954U 21022Y 22272.47141613 .00006293 00000-0 40507-3 0 9997
2 47954 97.5170 169.9613 0021151 145.2741 214.9873 15.08528719 83404
GRBAlpha
1 47959U 21022AD 22272.48717674 .00005051 00000-0 32829-3 0 9998
2 47959 97.5174 169.8773 0021309 146.0559 28.5133 15.08266053 82496
Orbicraft-Zorkiy
1 47960U 21022AE 22272.50361105 .00004617 00000-0 29897-3 0 9995
2 47960 97.5199 170.0765 0020979 144.8481 318.2628 15.08457393 83197
STECCO
1 47962U 21022AG 22272.50690573 .00007321 00000-0 44303-3 0 9995
2 47962 97.5163 171.0444 0016346 136.4642 328.2482 15.10807271 82571
DO-111
1 47963U 21022AH 22272.25264493 .00018199 00000-0 93602-3 0 9997
2 47963 97.5192 172.5448 0017801 127.4154 232.8702 15.16363374 82661
MO-110
1 47964U 21022AJ 22272.43891484 .00007339 00000-0 43852-3 0 9990
2 47964 97.5171 171.3035 0019402 134.0962 226.1868 15.11222923 82587
FEES
1 48082U 21022AL 22272.51960335 .00011773 00000-0 68326-3 0 9993
2 48082 97.5181 171.4197 0015713 129.1159 231.1471 15.12190862 82307
RamSat
1 48850U 98067SL 22272.06592064 .00466801 10334-3 95987-3 0 9992
2 48850 51.6302 140.7148 0005765 212.5662 147.4992 15.98695215 73711
TUBIN
1 48900U 21059X 22272.44414339 .00003881 00000-0 21364-3 0 9994
2 48900 97.5673 41.0356 0011236 103.3961 300.9645 15.14588033 69656
IT-SPINS
1 49017U 21013G 22272.22166025 .00009215 00000-0 34150-3 0 9990
2 49017 51.5969 262.4460 0009227 86.6668 273.5367 15.28296313 69640
LEDSAT
1 49069U 21073D 22272.15889375 .00004772 00000-0 30072-3 0 9997
2 49069 97.5153 342.9953 0025400 300.5040 59.3682 15.09359575 61478
CUTE
1 49263U 21088D 22272.42325054 .00004396 00000-0 32277-3 0 9999
2 49263 97.5778 338.2647 0021119 73.0171 287.3367 15.03791984 55042
Binar-1
1 49272U 98067SR 22272.00317875 .02675812 11904-4 10894-2 0 9994
2 49272 51.6156 142.3843 0009529 251.1581 108.8405 16.22512308 56077
TeikyoSat 4
1 49396U 21102B 22272.43909337 .00002075 00000-0 16732-3 0 9996
2 49396 97.5301 327.2153 0015084 266.6549 93.2950 15.00883762 48647
Z-Sat
1 49399U 21102E 22272.57517140 .00002943 00000-0 22288-3 0 9998
2 49399 97.5258 328.4616 0022385 234.9971 124.9154 15.02861911 48728
KOSEN 1
1 49402U 21102H 22272.42900112 .00002940 00000-0 21616-3 0 9993
2 49402 97.5197 328.5158 0021002 224.0307 135.9247 15.04001786 48739
HO-113
1 50466U 21131B 22272.57598531 .00000300 00000-0 11268-3 0 9991
2 50466 98.5744 349.7512 0004643 184.5535 175.5611 14.38531253 39888
Tevel
1 50999U 22002R 22272.58159034 .00008521 00000-0 44421-3 0 9992
2 50999 97.4718 338.0075 0012109 63.7292 45.9670 15.16155202 39199
Grizu-263a
1 51025U 22002AT 22272.17074674 .00014846 00000-0 70729-3 0 9991
2 51025 97.4878 338.7898 0013183 68.2533 292.0103 15.19148871 39179
NO-116
1 51031U 22002AZ 22272.15658335 .00010419 00000-0 52057-3 0 9994
2 51031 97.4833 338.3486 0013652 67.8667 292.4014 15.17570646 39150
IRIS-A
1 51044U 22002BN 22272.44493927 .00005181 00000-0 28701-3 0 9993
2 51044 97.4721 337.4422 0010526 69.8852 290.3511 15.14198652 39143
DELFI-PQ
1 51074U 22002CU 22272.17118909 .00011337 00000-0 53941-3 0 9994
2 51074 97.4961 339.3715 0014558 94.6135 265.6763 15.19241117 39196
SO-115
1 51080U 22002DA 22271.42261364 .00009849 00000-0 48733-3 0 9990
2 51080 97.4914 338.4168 0013891 94.2576 266.0245 15.17925927 39069
SO-114
1 51081U 22002DB 22271.62072719 .00009827 00000-0 48592-3 0 9996
2 51081 97.4944 338.5895 0015092 96.7879 263.5073 15.17932754 39099
OreSat0
1 52017U 22026K 22272.47948023 .00008852 00000-0 45780-3 0 9999
2 52017 97.5074 271.0859 0024529 274.0396 85.8033 15.16227994 29941
Planetum 1
1 52738U 22057G 22272.52649619 .00008076 00000-0 46196-3 0 9998
2 52738 97.5214 25.5754 0008551 165.1818 194.9665 15.12896356 19165
Foresail-1
1 52766U 22057AL 22272.36821543 .00005454 00000-0 30318-3 0 9995
2 52766 97.5309 25.8289 0014251 150.1698 282.3350 15.14016770 19159
SNUGLITE 2
1 52899U 22065F 22272.37675103 .00000664 00000-0 15282-3 0 9992
2 52899 98.0331 60.2301 0007332 318.6769 41.3885 14.58437410 12847
CTIM
1 52950U 22074G 22272.52366379 .00017060 00000-0 67514-3 0 9992
2 52950 45.0063 353.0605 0003747 9.1089 351.0005 15.25285931 13617
GREENCUBE
1 53106U 22080B 22270.63842984 -.00000003 00000-0 00000-0 0 9998
2 53106 70.1628 50.9274 0008650 240.4290 119.5508 6.42557874 4885
AstroBioCubeSat
1 53107U 22080C 22266.48607895 -.00000003 00000-0 00000-0 0 9997
2 53107 70.1533 52.4263 0013185 234.4876 125.4505 6.42111079 4525
CELESTA
1 53111U 22080G 22255.16019017 -.00000003 00000-0 00000+0 0 9997
2 53111 70.1086 56.1818 0009300 227.1361 132.8517 6.42544045 3765
RS4S
1 53306U 98067TR 22272.45542971 .00058130 00000-0 82860-3 0 9993
2 53306 51.6394 178.7673 0002021 217.5372 142.5478 15.55738943 10853
RS3S
1 53308U 98067TT 22272.45569157 .00057681 00000-0 82484-3 0 9992
2 53308 51.6395 178.7688 0002259 211.3316 148.7541 15.55654707 10916
RS1S
1 53309U 98067TU 22272.45217882 .00060148 00000-0 85352-3 0 9997
2 53309 51.6389 178.7433 0001841 230.7171 129.3657 15.55846683 10861
RS5S
1 53310U 98067TV 22272.45532827 .00057482 00000-0 82180-3 0 9991
2 53310 51.6394 178.7672 0001690 226.7870 133.2980 15.55663248 10897
RS6S
1 53311U 98067TW 22272.44646366 .00063023 00000-0 88658-3 0 9999
2 53311 51.6384 178.7044 0002663 202.8266 157.2608 15.56060663 10914
RS9S
1 53312U 98067TX 22272.45025163 .00060228 00000-0 85454-3 0 9992
2 53312 51.6391 178.7321 0001760 238.1971 121.8849 15.55849697 10851
RS12S
1 53313U 98067TY 22272.44833354 .00058711 00000-0 83222-3 0 9996
2 53313 51.6391 178.7197 0001388 225.6859 134.4018 15.55886936 10906
JAGSAT
1 53771U 98067UJ 22272.46850562 .00072409 00000-0 11139-2 0 9993
2 53771 51.6407 179.6032 0001926 328.1441 31.9432 15.53558964 3597
/EX
1
0
SB KEPS @ AMSAT $ORB22265.N
2Line Orbital Elements 22265.AMSAT
HR AMSAT ORBITAL ELEMENTS FOR AMATEUR SATELLITES IN NASA FORMAT
FROM WA5QGD FORT WORTH,TX September 22, 2022
BID: ORB22265.N
DECODE 2-LINE ELSETS WITH THE FOLLOWING KEY:
1 AAAAAU 00 0 0 BBBBB.BBBBBBBB .CCCCCCCC 00000-0 00000-0 0 DDDZ
2 AAAAA EEE.EEEE FFF.FFFF GGGGGGG HHH.HHHH III.IIII JJ.JJJJJJJJKKKKKZ
KEY: A-CATALOGNUM B-EPOCHTIME C-DECAY D-ELSETNUM E-INCLINATION F-RAAN
G-ECCENTRICITY H-ARGPERIGEE I-MNANOM J-MNMOTION K-ORBITNUM Z-CHECKSUM
TO ALL RADIO AMATEURS BT
AO-07
1 07530U 74089B 22265.54760818 -.00000024 00000-0 13880-3 0 9999
2 07530 101.9158 245.7587 0011907 214.9368 254.9034 12.53657130189638
UO-11
1 14781U 84021B 22265.56309838 .00000854 00000-0 10905-3 0 9990
2 14781 97.6268 248.6215 0008653 13.6727 346.4720 14.83811888 54440
LO-19
1 20442U 90005G 22265.84860020 .00000110 00000-0 56794-4 0 9998
2 20442 98.8052 232.2483 0010719 240.7351 119.2761 14.33087020707111
HUBBLE
1 20580U 90037B 22265.68758586 .00002309 00000-0 12440-3 0 9992
2 20580 28.4692 244.3604 0002455 8.8196 163.3730 15.10901542581206
